Simultaneous Nadir Overpasses (SNOs) Predictions

Prediction of SNOs between GOES-16 and METOP-A Satellite Orbit:

Table of predicted SNOs for the next 14.0 days since TLE Epoch: 1/23/2021
Index Date Time (GOES-16) GOES-16 Lat,Lon METOP-A Lat,Lon Distance(km) Time Diff (sec)
1 01/23/2021 13:30:39 0.00, -75.22 0.54, -77.56 267.49 80
2 01/24/2021 13:12:40 -0.00, -75.22 -0.56, -72.59 299.42 80
3 01/26/2021 01:31:40 0.00, -75.18 -0.47, -77.22 232.19 80
4 01/27/2021 01:08:20 0.00, -75.18 0.64, -72.24 334.89 80
5 01/28/2021 13:27:13 0.00, -75.22 0.35, -76.85 185.46 80
6 01/29/2021 13:09:13 0.00, -75.22 -0.75, -71.87 381.96 80
7 01/31/2021 01:28:14 -0.00, -75.20 -0.27, -76.50 148.63 80
8 02/01/2021 01:04:54 -0.00, -75.20 0.83, -71.53 419.11 80
9 02/02/2021 13:23:45 0.00, -75.24 0.22, -76.12 100.28 80
10 02/03/2021 13:05:46 0.00, -75.25 -0.89, -71.14 467.82 80
11 02/05/2021 01:24:46 -0.00, -75.24 -0.13, -75.78 61.83 80
